STARLINK-1366 (45569 NORAD) Tracking and Keplerian Element Data

This shows tracking and keplerian element data for the satellite.

Feedback or suggestion? Click here.




ElementValue
Catalog45569
NameSTARLINK-1366
Epoch Orbit1268
Epoch Day190.25001157
Epoch Year2020
RAAN24.0845
Inclination52.9956
Eccentricity0.0001415
Argument of Perigee62.2225
Mean Anonmoly111.5133
Mean Motion15.49238758
Decay Rate-0.01188465
L11 45569U 20025AQ 20190.25001157 -.01188465 00000-0 -23484-1 0 9998
L22 45569 52.9956 24.0845 0001415 62.2225 111.5133 15.49238758 12684

Live tracking and technical data element details for STARLINK-1366 (NORAD 45569). STARLINK-1366 can be tracked NOW for your location showing map with azimuth and elevation plus other details from your city location.

Track the satellite on the map from your city or location and see movement details for azimuth, elevation, latitude, longitude, range, height, and movement on the map or in text.







IsCatalogInMostPopularTable: catalog: 45569, numindb: 21
Update: records affected: 1



GetName: 45569 STARLINK-1366

Hit Count: updated at: Thu, 09 Jul 2020 01:00:30 GMT